TimeCST,TemperatureF,Dew PointF,Humidity,Sea Level PressureIn,VisibilityMPH,Wind Direction,Wind SpeedMPH,Gust SpeedMPH,PrecipitationIn,Events,Conditions,WindDirDegrees,DateUTC
12:41 AM,53.6,51.8,94,30.21,10.0,NE,1.2,-,N/A,,Clear,50,2013-11-05 06:41:00
12:58 AM,53.8,52.7,96,30.22,10.0,East,2.3,-,0.01,,Clear,90,2013-11-05 06:58:00
1:29 AM,53.6,53.6,100,30.20,10.0,East,3.5,-,N/A,,Light Drizzle,90,2013-11-05 07:29:00
1:51 AM,53.6,51.8,94,30.19,10.0,East,2.3,-,N/A,,Mostly Cloudy,80,2013-11-05 07:51:00
1:58 AM,54.3,52.3,93,30.20,10.0,East,3.5,-,0.00,,Scattered Clouds,80,2013-11-05 07:58:00
2:02 AM,53.6,51.8,94,30.19,10.0,Variable,2.3,-,N/A,Rain,Light Rain,0,2013-11-05 08:02:00
2:18 AM,53.6,51.8,94,30.19,10.0,ENE,3.5,-,N/A,,Partly Cloudy,70,2013-11-05 08:18:00
2:26 AM,53.6,51.8,94,30.19,10.0,ENE,2.3,-,N/A,,Light Drizzle,70,2013-11-05 08:26:00
2:58 AM,54.3,52.2,92,30.20,10.0,ENE,2.3,-,0.00,Rain,Light Rain,60,2013-11-05 08:58:00
3:01 AM,53.6,51.8,94,30.19,10.0,NE,2.3,-,N/A,,Partly Cloudy,50,2013-11-05 09:01:00
3:58 AM,54.0,52.7,95,30.20,10.0,East,3.5,-,0.00,,Scattered Clouds,80,2013-11-05 09:58:00
4:27 AM,53.6,51.8,94,30.20,10.0,NE,2.3,-,N/A,,Light Drizzle,50,2013-11-05 10:27:00
4:58 AM,54.1,53.1,96,30.22,10.0,NNE,1.2,-,0.01,Rain,Light Rain,30,2013-11-05 10:58:00
5:12 AM,53.6,53.6,100,30.21,10.0,ENE,1.2,-,N/A,,Mostly Cloudy,60,2013-11-05 11:12:00
5:17 AM,53.6,53.6,100,30.21,10.0,ENE,1.2,-,N/A,,Light Drizzle,60,2013-11-05 11:17:00
5:43 AM,53.6,53.6,100,30.21,10.0,NE,2.3,-,N/A,,Mostly Cloudy,50,2013-11-05 11:43:00
5:46 AM,53.6,53.6,100,30.21,10.0,NE,1.2,-,N/A,Rain,Light Rain,50,2013-11-05 11:46:00
5:58 AM,54.0,53.4,98,30.22,10.0,NNE,1.2,-,0.01,,Light Drizzle,30,2013-11-05 11:58:00
6:00 AM,53.6,53.6,100,30.21,10.0,Calm,Calm,-,N/A,,Mostly Cloudy,0,2013-11-05 12:00:00
6:27 AM,53.6,53.6,100,30.22,10.0,East,3.5,-,N/A,Rain,Light Rain,80,2013-11-05 12:27:00
6:58 AM,54.1,53.2,97,30.23,10.0,ENE,4.6,-,0.01,,Light Drizzle,70,2013-11-05 12:58:00
7:23 AM,53.6,53.6,100,30.22,10.0,ENE,3.5,-,N/A,,Mostly Cloudy,60,2013-11-05 13:23:00
7:58 AM,54.5,53.4,96,30.23,10.0,ENE,4.6,-,0.01,,Mostly Cloudy,70,2013-11-05 13:58:00
8:58 AM,57.0,53.1,87,30.23,10.0,East,3.5,-,N/A,,Scattered Clouds,80,2013-11-05 14:58:00
9:58 AM,60.3,53.2,78,30.23,10.0,SSE,6.9,-,N/A,,Mostly Cloudy,150,2013-11-05 15:58:00
10:58 AM,61.3,52.9,74,30.21,10.0,ESE,6.9,-,N/A,,Mostly Cloudy,120,2013-11-05 16:58:00
11:58 AM,65.5,54.3,67,30.18,10.0,SE,10.4,17.3,N/A,,Mostly Cloudy,140,2013-11-05 17:58:00
12:58 PM,66.9,55.0,66,30.15,10.0,SE,10.4,-,N/A,,Partly Cloudy,130,2013-11-05 18:58:00
1:58 PM,66.6,55.0,66,30.12,10.0,SE,10.4,-,N/A,,Partly Cloudy,140,2013-11-05 19:58:00
2:58 PM,66.6,55.4,67,30.12,10.0,SE,8.1,-,N/A,,Scattered Clouds,130,2013-11-05 20:58:00
3:58 PM,68.0,56.3,66,30.11,10.0,Variable,6.9,17.3,N/A,,Mostly Cloudy,0,2013-11-05 21:58:00
4:58 PM,66.4,56.3,70,30.10,10.0,SE,6.9,-,N/A,,Scattered Clouds,140,2013-11-05 22:58:00
5:58 PM,65.1,56.5,74,30.10,10.0,SE,5.8,-,N/A,,Overcast,130,2013-11-05 23:58:00
6:58 PM,65.3,56.3,73,30.10,10.0,East,5.8,-,N/A,,Mostly Cloudy,100,2013-11-06 00:58:00
7:58 PM,64.0,56.5,76,30.09,10.0,East,5.8,-,N/A,,Overcast,90,2013-11-06 01:58:00
8:58 PM,63.1,56.3,78,30.10,10.0,East,3.5,-,N/A,,Mostly Cloudy,100,2013-11-06 02:58:00
9:58 PM,65.3,56.5,73,30.09,10.0,SE,8.1,-,N/A,,Mostly Cloudy,130,2013-11-06 03:58:00
10:58 PM,64.0,56.8,77,30.09,10.0,SE,6.9,-,N/A,,Mostly Cloudy,140,2013-11-06 04:58:00
11:58 PM,63.5,57.0,79,30.07,10.0,SSE,9.2,18.4,N/A,,Mostly Cloudy,150,2013-11-06 05:58:00